Tracking 27420 objects as of 28-May-2023
HD Live streaming from Space Station
objects crossing your sky now

BREEZE-M DEB

Track BREEZE-M DEB now!
10-day predictions


NORAD ID: 48535
Int'l Code: 2008-011EA
Perigee: 651.4 km
Apogee: 27,006.8 km
Inclination: 49.9 °
Period: 476.2 minutes
Semi major axis: 20200 km
RCS: Unknown
Launch date: March 14, 2008
Source: Commonwealth of Independent States (former USSR) (CIS)
Launch site: TYURATAM MISSILE AND SPACE COMPLEX (TTMTR)

Note: This is SATELLITE DEBRIS
Your satellite tracking list
Your tracking list is empty




NASA's NSSDC Master Catalog

Two Line Element Set (TLE):
1 48535U 08011EA  23147.14833542 -.00000372  00000-0 -48192-2 0  9992
2 48535  49.8714 119.0084 6523570  90.9999 338.6459  3.02393402 15826
Source of the keplerian elements: AFSPC